Regional Weather Roundup
Issued by NWS

Home | Current Version | Previous Version | Text Only | Print | Product List | Glossary Off
Versions: 1 2 3 4 5 6 7 8 9 10 11 12 13 14 15 16 17 18 19 20 21 22 23 24 25 26 27 28 29 30 31 32 33 34 35 36 37 38 39 40 41 42 43 44 45 46 47 48 49 50

000
ASUS43 KIND 041259
RWRIN

WEATHER ROUNDUP FOR INDIANA
NATIONAL WEATHER SERVICE INDIANAPOLIS IN
900 AM EDT WED MAY 04 2016

NOTE: "FAIR" INDICATES FEW OR NO CLOUDS BELOW 12,000 FEET WITH NO
SIGNIFICANT WEATHER AND/OR OBSTRUCTIONS TO VISIBILITY.

* - STATION DOES NOT REPORT WEATHER SUCH AS PRECIPITATION OR FOG.

+ - STATION NOT QUALITY CONTROLLED BY THE NATIONAL WEATHER SERVICE.
    USE DATA WITH CAUTION...ESPECIALLY DEWPOINT AND RELATIVE
    HUMIDITY OBSERVATIONS.

INZ001>003-010>013-019-020-041400-
NORTHWEST INDIANA

CITY           SKY/WX    TMP DP  RH WIND       PRES   REMARKS
GARY /AIRPORT/ MOSUNNY   46  46 100 NW21G44   29.72R
RENSSELAER +   CLOUDY    48  45  87 NW15G21   29.69R

$$

LMZ046-743>745-041400-
SOUTHERN LAKE MICHIGAN

STATION/POSITION TIME  TEMP    WIND        PRES    WAVE
                       AIR SEA DIR/SP/G            HT
                 (UTC) (F)     (DEG/KT/KT) (MB)    (FT)
BURNS HARBOR     1204   44     360/ 24     1005.4R
MICHIGAN CITY    1200   42     340/ 30/ 32   N/A

$$

INZ004-005-014>016-021>024-041400-
NORTH CENTRAL INDIANA

CITY           SKY/WX    TMP DP  RH WIND       PRES   REMARKS
ELKHART        LGT RAIN  46  46 100 NW9       29.61S
GOSHEN         LGT RAIN  48  44  86 NW9       29.60R
SOUTH BEND     CLOUDY    44  42  93 NW16G23   29.64R

$$

INZ006>009-017-018-025>027-041400-
NORTHEAST INDIANA

CITY           SKY/WX    TMP DP  RH WIND       PRES   REMARKS
ANGOLA *+      CLOUDY    48  48 100 S5        29.58F
FORT WAYNE     LGT RAIN  51  46  83 SW15      29.61F

$$

INZ028-029-035-036-043>045-051>053-041400-
WEST CENTRAL INDIANA

CITY           SKY/WX    TMP DP  RH WIND       PRES   REMARKS
CRAWFORDSVL +  CLOUDY    49  49 100 W12       29.68R
GREENCASTLE +  CLOUDY    48  48 100 SW3       29.68S
LAFAYETTE      LGT RAIN  49  47  93 NW12      29.67R FOG
TERRE HAUTE    PTSUNNY   51  48  89 SW9       29.69R

$$

INZ030>032-037>040-046>048-054>057-064-065-041400-
CENTRAL INDIANA

CITY           SKY/WX    TMP DP  RH WIND       PRES   REMARKS
ANDERSON       DRIZZLE   50  46  87 SW8       29.66
COLUMBUS       CLOUDY    50  48  93 SW12G17   29.71R
INDIANAPOLIS   CLOUDY    50  46  86 SW12      29.66S
-EAGLE CREEK   CLOUDY    50  47  89 SW9       29.66R
KOKOMO *+      CLOUDY    50  45  81 W17       29.62S
SHELBYVILLE    LGT RAIN  53  46  77 SW17G23   29.68F

$$

INZ033-034-041-042-049-050-058-059-041400-
EAST CENTRAL INDIANA

CITY           SKY/WX    TMP DP  RH WIND       PRES   REMARKS
MUNCIE         LGT RAIN  52  45  77 SW9       29.64F

$$

INZ060-061-067>069-081>083-085>088-041400-
SOUTHWEST INDIANA

CITY           SKY/WX    TMP DP  RH WIND       PRES   REMARKS
EVANSVILLE     LGT RAIN  52  47  83 SW9       29.76R
HUNTINGBURG *+ CLOUDY    52  46  82 W3        29.77R

$$

INZ062-063-066-070>080-084-089>092-041400-
SOUTH CENTRAL AND SOUTHEAST INDIANA

CITY           SKY/WX    TMP DP  RH WIND       PRES   REMARKS
BLOOMINGTON    RAIN      50  46  86 S9        29.70F FOG
MADISON *+     CLOUDY    52  45  76 S7        29.74F
SEYMOUR +      CLOUDY    54  46  76 W10       29.73R

$$





USA.gov is the U.S. government's official web portal to all federal, state and local government web resources and services.